Location: Aytr�
(46.1357°N, 1.1145°W)
Time: 06:39:48
(UTC+00:00)

Nauka - Pass Details

Date: 17 September 2021
Orbit: 418 x 423 km, 51.6° (Epoch: 18 October)

Event Time Altitude Azimuth Distance (km) Brightness Sun altitude
Rises 21:04:44 0° 262° (W) 2,361 ? -28.6°
Reaches altitude 10° 21:06:53 10° 269° (W) 1,500 ? -28.9°
Enters shadow 21:07:18 13° 271° (W) 1,340 ? -28.9°
